Regional Weather Roundup
Issued by NWS

Home | Current Version | Previous Version | Text Only | Print | Product List | Glossary On
Versions: 1 2 3 4 5 6 7 8 9 10 11 12 13 14 15 16 17 18 19 20 21 22 23 24 25 26 27 28 29 30 31 32 33 34 35 36 37 38 39 40 41 42 43 44 45 46 47 48 49 50
302
ASUS42 KFFC 172210
RWRGA
WEATHER ROUNDUP FOR GEORGIA
NATIONAL WEATHER SERVICE PEACHTREE CITY GA
500 PM EST TUE JAN 17 2017

NOTE: "FAIR" INDICATES FEW OR NO CLOUDS BELOW 12,000 FEET WITH NO
SIGNIFICANT WEATHER AND/OR OBSTRUCTIONS TO VISIBILITY.

* = USE WITH CAUTION. THE STATIONS MARKED WITH AN ASTERISK MAY NOT
REPORT WEATHER SUCH AS PRECIPITATION, FOG, OR THUNDER AND ARE NOT
QUALITY CONTROLLED BY NWS.

THE REMARK "TC" DENOTES TEMPERATURE READING IN DEGREES CELSIUS.

GAZ001>058-172300-
NORTH GEORGIA

CITY           SKY/WX    TMP DP  RH WIND       PRES   REMARKS
ATLANTA        MOCLDY    72  56  57 SW12      30.14R
ATHENS         PTCLDY    74  54  49 SW6       30.12S
CHAMBLEE       MOCLDY    72  55  55 SW14      30.14R
PEACHTREE CITY PTCLDY    73  56  54 VRB7      30.16R
ROME           PTCLDY    73  56  54 SW8G17    30.09F
WEST ATLANTA   MOCLDY    73  55  53 SW9G17    30.14R
GAINESVILLE    CLOUDY    70  55  59 SW14      30.15R
CARTERSVILLE   CLOUDY    72  56  57 VRB3      30.13S


CITY           SKY/WX    TMP DP  RH WIND       PRES   REMARKS
DALTON*        CLOUDY    70  59  68 S6        30.11S
LAWRENCEVILLE* MOCLDY    73  54  49 SW9       30.14R
MARIETTA       CLOUDY    71  57  60 SW6       30.14R
KENNESAW*      MOCLDY    72  55  56 W14G21    30.12R
CANTON*        CLOUDY    70  48  46 SW8       30.14S
$$

GAZ059>098-102>109-172300-
CENTRAL GEORGIA

CITY           SKY/WX    TMP DP  RH WIND       PRES   REMARKS
AUGUSTA-BUSH   PTCLDY    77  54  44 SW10G17   30.13F
AUGUSTA-DANIEL PTCLDY    75  52  44 SW10      30.14F
COLUMBUS       MOSUNNY   75  56  51 SW9       30.14S
MACON          PTCLDY    75  55  49 SW13      30.15S
ROBINS AFB     PTCLDY    77  56  48 S10       30.15R


CITY           SKY/WX    TMP DP  RH WIND       PRES   REMARKS
LAGRANGE*      MOCLDY    75  62  62 SW6       30.15R
SYLVANIA*      PTCLDY   N/A N/A N/A SW5       30.18S
MILLEDGEVILLE* PTCLDY    73  59  60 CALM      30.15R
$$

GAZ099>101-110>166-172300-
SOUTH GEORGIA

CITY           SKY/WX    TMP DP  RH WIND       PRES   REMARKS
SAVANNAH       MOCLDY    74  56  53 SW6       30.18S
VALDOSTA       CLEAR     75  59  57 VRB5      30.19R
ALMA           MOCLDY    76  58  53 SW3       30.18R
ST SIMONS      CLOUDY    64  59  83 SE8       30.19S
FT STEWART     PTCLDY    75  58  55 CALM      30.17R
ALBANY         MOSUNNY   76  58  53 SW8       30.19R
HUNTER AFB     CLEAR     72  60  65 SE5       30.16S
MOODY AFB      CLEAR     76  57  52 SW9       30.17S
BRUNSWICK      CLOUDY    72  63  73 S6        30.20R


CITY           SKY/WX    TMP DP  RH WIND       PRES   REMARKS
BAINBRIDGE*    MOSUNNY   77  61  57 CALM      30.18S
MOULTRIE*      SUNNY     73  61  64 S6        30.20R
VIDALIA*       MOCLDY    77  61  57 SW7       30.17F
WAYCROSS*      PTCLDY    79  60  52 SW6       30.18S
DOUGLAS*       PTCLDY    73  55  53 SW6       30.20S
$$




USA.gov is the U.S. government's official web portal to all federal, state and local government web resources and services.